CCA94 ZPPP-ZSHC

Flight info

Callsign CCA94
Flight time N/A
Altitude 41100
Route NOD9Z NODIB W137 LPS A581 WHA R343 UPLEL W95 SAPIN A470 IGRAT IGR82A
Aircraft A333/H-SDE3GHIJ2J3J5M1RVWXY/LB2D1

Departure

Time 2026-05-04 12:31
Airport Kunming Changshui International Airport (ZPPP)

Arrival

Time N/A
Airport Hangzhou Xiaoshan International Airport (ZSHC)
Time Latitude Longitude Altitude Speed Heading
2026-05-04 12:00 25.11005 102.93785 6900 ft 0 kts 39°
2026-05-04 12:04 25.11148 102.93895 6899 ft 0 kts 221°
2026-05-04 12:05 25.10900 102.94043 6897 ft 0 kts 308°
2026-05-04 12:05 25.10927 102.94072 6897 ft 0 kts 309°
2026-05-04 12:06 25.11003 102.94096 6897 ft 0 kts 218°
2026-05-04 12:15 25.11004 102.94098 6897 ft 2 kts 218°
2026-05-04 12:16 25.11024 102.94116 6897 ft 4 kts 223°
2026-05-04 12:16 25.11043 102.94137 6897 ft 4 kts 229°
2026-05-04 12:16 25.11060 102.94160 6897 ft 4 kts 239°
2026-05-04 12:16 25.11070 102.94186 6897 ft 4 kts 269°
2026-05-04 12:17 25.11068 102.94203 6897 ft 1 kts 309°
2026-05-04 12:18 25.11075 102.94193 6897 ft 3 kts 309°
2026-05-04 12:19 25.11094 102.94167 6897 ft 6 kts 309°
2026-05-04 12:19 25.11124 102.94127 6897 ft 8 kts 309°
2026-05-04 12:19 25.11161 102.94074 6897 ft 10 kts 308°
2026-05-04 12:19 25.11207 102.94011 6898 ft 12 kts 308°
2026-05-04 12:20 25.11261 102.93935 6899 ft 14 kts 308°
2026-05-04 12:20 25.11324 102.93847 6901 ft 15 kts 308°
2026-05-04 12:20 25.11394 102.93749 6902 ft 17 kts 308°
2026-05-04 12:20 25.11470 102.93644 6903 ft 18 kts 309°
2026-05-04 12:21 25.11554 102.93531 6912 ft 19 kts 310°
2026-05-04 12:21 25.11644 102.93415 6917 ft 20 kts 316°
2026-05-04 12:21 25.11749 102.93390 6920 ft 11 kts 20°
2026-05-04 12:21 25.11799 102.93428 6918 ft 9 kts 40°
2026-05-04 12:22 25.11859 102.93483 6913 ft 13 kts 38°
2026-05-04 12:22 25.11940 102.93554 6917 ft 16 kts 38°
2026-05-04 12:22 25.12037 102.93639 6918 ft 20 kts 38°
2026-05-04 12:22 25.12152 102.93739 6903 ft 23 kts 38°
2026-05-04 12:23 25.12283 102.93852 6903 ft 25 kts 38°
2026-05-04 12:23 25.12427 102.93976 6902 ft 27 kts 38°
2026-05-04 12:23 25.12578 102.94110 6901 ft 28 kts 40°
2026-05-04 12:23 25.12719 102.94233 6900 ft 25 kts 38°
2026-05-04 12:24 25.12848 102.94339 6900 ft 20 kts 25°
2026-05-04 12:24 25.12901 102.94338 6900 ft 1 kts 323°
2026-05-04 12:24 25.12903 102.94334 6900 ft 0 kts 309°
2026-05-04 12:26 25.12907 102.94329 6900 ft 3 kts 310°
2026-05-04 12:26 25.12935 102.94296 6900 ft 8 kts 318°
2026-05-04 12:26 25.12971 102.94250 6899 ft 0 kts 307°
2026-05-04 12:28 25.12982 102.94234 6899 ft 6 kts 307°
2026-05-04 12:28 25.13018 102.94177 6898 ft 9 kts 295°
2026-05-04 12:28 25.13011 102.94125 6898 ft 5 kts 236°
2026-05-04 12:29 25.12991 102.94103 6898 ft 0 kts 219°
2026-05-04 12:29 25.12991 102.94102 6898 ft 2 kts 219°
2026-05-04 12:29 25.12988 102.94100 6898 ft 0 kts 219°
2026-05-04 12:30 25.12987 102.94099 6898 ft 3 kts 219°
2026-05-04 12:30 25.12824 102.93955 6899 ft 57 kts 218°
2026-05-04 12:30 25.12379 102.93570 6913 ft 104 kts 218°
2026-05-04 12:31 25.11693 102.92977 6934 ft 143 kts 217°
2026-05-04 12:31 25.10840 102.92299 7107 ft 165 kts 211°
2026-05-04 12:31 25.09797 102.91679 7679 ft 166 kts 208°
2026-05-04 12:31 25.08746 102.91157 8327 ft 173 kts 202°
2026-05-04 12:32 25.07471 102.91140 8531 ft 203 kts 160°
2026-05-04 12:32 25.06125 102.94070 8941 ft 256 kts 79°
2026-05-04 12:32 25.06967 102.95842 9244 ft 272 kts 43°
2026-05-04 12:33 25.08608 102.96810 9822 ft 275 kts 12°
2026-05-04 12:33 25.10532 102.97119 10238 ft 289 kts
2026-05-04 12:33 25.12622 102.97381 10482 ft 316 kts
2026-05-04 12:33 25.14768 102.98231 10747 ft 343 kts 28°
2026-05-04 12:34 25.16678 102.99950 11109 ft 363 kts 43°
2026-05-04 12:34 25.18349 103.02083 11696 ft 371 kts 50°
2026-05-04 12:34 25.19873 103.04415 12344 ft 378 kts 53°
2026-05-04 12:34 25.21343 103.06851 12972 ft 383 kts 54°
2026-05-04 12:35 25.22812 103.09328 13643 ft 388 kts 54°
2026-05-04 12:35 25.24314 103.11830 14262 ft 392 kts 53°
2026-05-04 12:35 25.25854 103.14343 14773 ft 397 kts 53°
2026-05-04 12:35 25.27428 103.16863 15459 ft 397 kts 52°
2026-05-04 12:36 25.28998 103.19349 16271 ft 394 kts 52°
2026-05-04 12:36 25.30044 103.20994 16686 ft 396 kts 51°
2026-05-04 12:36 25.31637 103.23493 17288 ft 400 kts 51°
2026-05-04 12:36 25.33250 103.26019 17868 ft 404 kts 51°
2026-05-04 12:37 25.34880 103.28576 18476 ft 408 kts 51°
2026-05-04 12:37 25.36510 103.31136 19096 ft 407 kts 51°
2026-05-04 12:37 25.38146 103.33710 19592 ft 411 kts 51°
2026-05-04 12:37 25.39797 103.36310 20030 ft 415 kts 51°
2026-05-04 12:38 25.41462 103.38935 20505 ft 418 kts 51°
2026-05-04 12:38 25.43142 103.41586 20980 ft 422 kts 51°
2026-05-04 12:38 25.44814 103.44227 21456 ft 425 kts 51°
2026-05-04 12:38 25.46516 103.46915 21919 ft 429 kts 51°
2026-05-04 12:39 25.48238 103.49636 22366 ft 432 kts 51°
2026-05-04 12:39 25.49975 103.52383 22764 ft 437 kts 51°
2026-05-04 12:39 25.51724 103.55151 23191 ft 441 kts 51°
2026-05-04 12:39 25.53488 103.57948 23650 ft 444 kts 51°
2026-05-04 12:40 25.55261 103.60758 24042 ft 447 kts 51°
2026-05-04 12:40 25.57049 103.63592 24394 ft 450 kts 51°
2026-05-04 12:40 25.58849 103.66446 24717 ft 454 kts 51°
2026-05-04 12:40 25.60667 103.69330 25042 ft 457 kts 51°
2026-05-04 12:41 25.62500 103.72236 25376 ft 460 kts 50°
2026-05-04 12:41 25.64344 103.75158 25707 ft 464 kts 50°
2026-05-04 12:41 25.66195 103.78098 26032 ft 467 kts 50°
2026-05-04 12:41 25.68031 103.81021 26350 ft 470 kts 50°
2026-05-04 12:42 25.69902 103.84005 26690 ft 472 kts 50°
2026-05-04 12:42 25.71784 103.87005 27022 ft 476 kts 50°
2026-05-04 12:42 25.73679 103.90027 27335 ft 479 kts 50°
2026-05-04 12:42 25.75583 103.93065 27653 ft 481 kts 50°
2026-05-04 12:43 25.77505 103.96133 27967 ft 484 kts 50°
2026-05-04 12:43 25.79432 103.99211 28299 ft 487 kts 50°
2026-05-04 12:43 25.81367 104.02304 28621 ft 490 kts 50°
2026-05-04 12:43 25.83314 104.05419 28895 ft 493 kts 50°
2026-05-04 12:44 25.85273 104.08557 29169 ft 496 kts 50°
2026-05-04 12:44 25.87239 104.11705 29497 ft 498 kts 50°
2026-05-04 12:44 25.89219 104.14877 29815 ft 500 kts 50°
2026-05-04 12:44 25.91203 104.18057 30071 ft 503 kts 50°
2026-05-04 12:45 25.93202 104.21262 30361 ft 505 kts 50°
2026-05-04 12:45 25.95200 104.24469 30617 ft 506 kts 50°
2026-05-04 12:45 25.97212 104.27702 30903 ft 508 kts 50°
2026-05-04 12:45 25.99197 104.30896 31161 ft 510 kts 50°
2026-05-04 12:46 26.01218 104.34151 31412 ft 512 kts 50°
2026-05-04 12:46 26.03244 104.37415 31639 ft 514 kts 50°
2026-05-04 12:46 26.05275 104.40690 31835 ft 516 kts 50°
2026-05-04 12:46 26.07316 104.43982 32089 ft 517 kts 50°
2026-05-04 12:47 26.09357 104.47279 32365 ft 517 kts 50°
2026-05-04 12:47 26.11398 104.50578 32676 ft 517 kts 50°
2026-05-04 12:47 26.13434 104.53870 33036 ft 516 kts 49°
2026-05-04 12:47 26.15470 104.57164 33345 ft 516 kts 49°
2026-05-04 12:48 26.17505 104.60461 33570 ft 517 kts 49°
2026-05-04 12:48 26.19546 104.63768 33917 ft 516 kts 49°
2026-05-04 12:48 26.21556 104.67025 34149 ft 517 kts 49°
2026-05-04 12:48 26.23588 104.70324 34378 ft 516 kts 49°
2026-05-04 12:49 26.25617 104.73622 34576 ft 516 kts 49°
2026-05-04 12:49 26.27649 104.76923 34909 ft 513 kts 49°
2026-05-04 12:49 26.29664 104.80196 35230 ft 511 kts 49°
2026-05-04 12:49 26.31674 104.83464 35506 ft 511 kts 49°
2026-05-04 12:50 26.33682 104.86730 35767 ft 510 kts 49°
2026-05-04 12:50 26.35685 104.89990 36014 ft 510 kts 49°
2026-05-04 12:50 26.37667 104.93214 36090 ft 510 kts 49°
2026-05-04 12:51 26.41684 104.99758 36259 ft 512 kts 49°
2026-05-04 12:51 26.43695 105.03045 36466 ft 512 kts 49°
2026-05-04 12:51 26.45698 105.06326 36830 ft 509 kts 49°
2026-05-04 12:51 26.47689 105.09590 37106 ft 507 kts 49°
2026-05-04 12:52 26.49674 105.12844 37369 ft 506 kts 49°
2026-05-04 12:52 26.51657 105.16091 37603 ft 506 kts 49°
2026-05-04 12:52 26.53638 105.19337 37780 ft 507 kts 49°
2026-05-04 12:52 26.55625 105.22598 37932 ft 508 kts 49°
2026-05-04 12:53 26.57583 105.25813 38275 ft 505 kts 49°
2026-05-04 12:53 26.59553 105.29054 38571 ft 503 kts 49°
2026-05-04 12:53 26.61522 105.32290 38749 ft 504 kts 49°
2026-05-04 12:53 26.63493 105.35533 38910 ft 504 kts 48°
2026-05-04 12:54 26.65466 105.38780 39011 ft 505 kts 48°
2026-05-04 12:54 26.69418 105.45288 39085 ft 506 kts 49°
2026-05-04 12:55 26.73360 105.51798 39088 ft 505 kts 49°
2026-05-04 12:55 26.77297 105.58305 39085 ft 505 kts 49°
2026-05-04 12:56 26.81231 105.64817 39097 ft 505 kts 49°
2026-05-04 12:56 26.85161 105.71333 39091 ft 505 kts 49°
2026-05-04 12:57 26.89092 105.77862 39101 ft 505 kts 48°
2026-05-04 12:57 26.93001 105.84363 39093 ft 506 kts 49°
2026-05-04 12:58 26.96936 105.90912 39098 ft 506 kts 48°
2026-05-04 12:58 27.00866 105.97466 39098 ft 506 kts 49°
2026-05-04 12:59 27.04640 106.04182 39099 ft 512 kts 54°
2026-05-04 12:59 27.07965 106.11206 39097 ft 514 kts 56°
2026-05-04 13:00 27.11227 106.18355 39099 ft 514 kts 56°
2026-05-04 13:00 27.14479 106.25532 39098 ft 515 kts 56°
2026-05-04 13:01 27.17739 106.32726 39097 ft 516 kts 56°
2026-05-04 13:01 27.20990 106.39870 39098 ft 516 kts 56°
2026-05-04 13:02 27.24257 106.47056 39103 ft 516 kts 56°
2026-05-04 13:02 27.27517 106.54243 39100 ft 516 kts 56°
2026-05-04 13:03 27.30773 106.61452 39096 ft 517 kts 56°
2026-05-04 13:03 27.34041 106.68674 40010 ft 518 kts 56°
2026-05-04 13:03 27.35666 106.72264 39826 ft 512 kts 62°
2026-05-04 13:04 27.37263 106.75808 39569 ft 504 kts 62°
2026-05-04 13:04 27.38829 106.79295 39343 ft 495 kts 62°
2026-05-04 13:04 27.40372 106.82743 39100 ft 488 kts 62°
2026-05-04 13:05 27.43362 106.89435 39003 ft 478 kts 62°
2026-05-04 13:05 27.46359 106.96148 38999 ft 480 kts 62°
2026-05-04 13:06 27.49360 107.02834 38997 ft 481 kts 62°
2026-05-04 13:06 27.52396 107.09542 39001 ft 480 kts 62°
2026-05-04 13:07 27.55432 107.16251 38998 ft 480 kts 62°
2026-05-04 13:07 27.58456 107.22953 38999 ft 479 kts 62°
2026-05-04 13:08 27.61474 107.29648 38997 ft 479 kts 62°
2026-05-04 13:08 27.64491 107.36352 39005 ft 480 kts 62°
2026-05-04 13:09 27.67506 107.43062 39002 ft 479 kts 62°
2026-05-04 13:09 27.70518 107.49777 39001 ft 480 kts 62°
2026-05-04 13:10 27.73528 107.56499 38999 ft 479 kts 62°
2026-05-04 13:10 27.76537 107.63230 38997 ft 480 kts 62°
2026-05-04 13:11 27.79524 107.69922 38999 ft 480 kts 62°
2026-05-04 13:11 27.82530 107.76666 39005 ft 480 kts 62°
2026-05-04 13:12 27.85569 107.83371 38997 ft 479 kts 62°
2026-05-04 13:12 27.88633 107.90059 39000 ft 479 kts 62°
2026-05-04 13:13 27.91689 107.96738 38998 ft 478 kts 62°
2026-05-04 13:13 27.94737 108.03423 39001 ft 478 kts 62°
2026-05-04 13:14 27.97789 108.10136 39001 ft 480 kts 62°
2026-05-04 13:14 28.00818 108.16810 38999 ft 480 kts 62°
2026-05-04 13:15 28.03862 108.23528 39006 ft 479 kts 62°
2026-05-04 13:15 28.06894 108.30232 39004 ft 478 kts 62°
2026-05-04 13:16 28.09927 108.36945 38998 ft 478 kts 62°
2026-05-04 13:16 28.12955 108.43661 38998 ft 479 kts 62°
2026-05-04 13:17 28.15981 108.50382 38998 ft 479 kts 62°
2026-05-04 13:17 28.19002 108.57103 38998 ft 479 kts 62°
2026-05-04 13:18 28.22001 108.63787 39002 ft 478 kts 62°
2026-05-04 13:18 28.25022 108.70531 38997 ft 479 kts 62°
2026-05-04 13:19 28.28042 108.77285 38996 ft 480 kts 62°
2026-05-04 13:19 28.31062 108.84049 39000 ft 480 kts 62°
2026-05-04 13:20 28.34072 108.90800 39001 ft 479 kts 62°
2026-05-04 13:20 28.37074 108.97546 39001 ft 478 kts 62°
2026-05-04 13:21 28.40057 109.04261 39003 ft 477 kts 62°
2026-05-04 13:21 28.43042 109.10993 38999 ft 477 kts 62°
2026-05-04 13:22 28.46026 109.17738 38999 ft 477 kts 62°
2026-05-04 13:22 28.48999 109.24484 39004 ft 476 kts 63°
2026-05-04 13:23 28.51945 109.31180 38997 ft 476 kts 63°
2026-05-04 13:23 28.54906 109.37923 38996 ft 476 kts 63°
2026-05-04 13:24 28.57814 109.44695 38999 ft 476 kts 66°
2026-05-04 13:24 28.60318 109.51685 38997 ft 476 kts 68°
2026-05-04 13:25 28.63524 109.61041 38998 ft 477 kts 68°
2026-05-04 13:25 28.65940 109.68103 39001 ft 478 kts 68°
2026-05-04 13:26 28.68442 109.75115 39000 ft 477 kts 67°
2026-05-04 13:26 28.70963 109.82103 39005 ft 477 kts 67°
2026-05-04 13:27 28.73477 109.89099 39001 ft 477 kts 67°
2026-05-04 13:27 28.75980 109.96099 38997 ft 476 kts 67°
2026-05-04 13:28 28.78462 110.03062 38998 ft 477 kts 67°
2026-05-04 13:28 28.80963 110.10091 39003 ft 478 kts 67°
2026-05-04 13:29 28.83456 110.17114 39002 ft 477 kts 67°
2026-05-04 13:29 28.85946 110.24139 38997 ft 479 kts 67°
2026-05-04 13:30 28.88446 110.31209 39000 ft 480 kts 67°
2026-05-04 13:30 28.90926 110.38235 38997 ft 479 kts 67°
2026-05-04 13:31 28.93409 110.45281 38999 ft 478 kts 67°
2026-05-04 13:31 28.95882 110.52315 38997 ft 478 kts 67°
2026-05-04 13:32 28.98355 110.59361 39001 ft 478 kts 68°
2026-05-04 13:32 29.00824 110.66412 39001 ft 478 kts 68°
2026-05-04 13:33 29.03296 110.73473 38997 ft 477 kts 67°
2026-05-04 13:33 29.05772 110.80470 39004 ft 477 kts 67°
2026-05-04 13:34 29.08269 110.87504 38999 ft 477 kts 67°
2026-05-04 13:34 29.10757 110.94533 38999 ft 477 kts 67°
2026-05-04 13:35 29.14481 111.05090 39000 ft 477 kts 67°
2026-05-04 13:36 29.16958 111.12132 39001 ft 477 kts 67°
2026-05-04 13:36 29.19429 111.19170 39005 ft 476 kts 67°
2026-05-04 13:37 29.21894 111.26207 39013 ft 475 kts 68°
2026-05-04 13:37 29.23113 111.29688 38317 ft 483 kts 62°
2026-05-04 13:37 29.24383 111.33299 38042 ft 495 kts 62°
2026-05-04 13:38 29.24936 111.34875 38007 ft 497 kts 62°
2026-05-04 13:40 29.26074 111.38125 38015 ft 502 kts 62°
2026-05-04 13:40 29.28679 111.45603 38136 ft 509 kts 62°
2026-05-04 13:41 29.31295 111.53136 38274 ft 515 kts 62°
2026-05-04 13:41 29.33959 111.60819 38370 ft 522 kts 62°
2026-05-04 13:42 29.37296 111.68146 38472 ft 518 kts 51°
2026-05-04 13:42 29.39220 111.71658 38539 ft 520 kts 50°
2026-05-04 13:42 29.43197 111.78630 38670 ft 524 kts 49°
2026-05-04 13:43 29.47243 111.85645 38840 ft 528 kts 49°
2026-05-04 13:43 29.49268 111.89174 38962 ft 529 kts 49°
2026-05-04 13:43 29.51290 111.92707 39010 ft 530 kts 49°
2026-05-04 13:44 29.55292 111.99733 39007 ft 529 kts 49°
2026-05-04 13:44 29.59316 112.06815 39008 ft 529 kts 49°
2026-05-04 13:45 29.63206 112.13669 39009 ft 529 kts 50°
2026-05-04 13:45 29.67223 112.20758 39006 ft 529 kts 50°
2026-05-04 13:46 29.71244 112.27867 39008 ft 530 kts 50°
2026-05-04 13:46 29.75263 112.34993 39009 ft 530 kts 50°
2026-05-04 13:47 29.79261 112.42127 39007 ft 530 kts 50°
2026-05-04 13:47 29.83229 112.49224 39015 ft 530 kts 51°
2026-05-04 13:48 29.87237 112.56402 39007 ft 531 kts 51°
2026-05-04 13:48 29.91235 112.63574 39008 ft 532 kts 51°
2026-05-04 13:49 29.95205 112.70709 39008 ft 532 kts 51°
2026-05-04 13:49 29.99216 112.77923 38999 ft 538 kts 51°
2026-05-04 13:50 30.03280 112.85243 39005 ft 544 kts 51°
2026-05-04 13:50 30.07361 112.92623 39006 ft 543 kts 51°